Syracuse, NY

8:38 PM EST on December 14, 2017 (GMT -0500)
Syracuse Hancock International

Weather History for KSYR - August, 2014

Change the Weather History Date:

Saturday, August 16, 2014

  Actual Average Record
Temperature  
Mean Temperature 66 °F 70 °F  
Max Temperature 76 °F 80 °F 95 °F (1944)
Min Temperature 55 °F 60 °F 47 °F (1968)
Degree Days  
Heating Degree Days 0 1  
Month to date heating degree days 6 3  
Since 1 June heating degree days 31 72  
Since 1 July heating degree days 8 11  
Cooling Degree Days 1 6  
Month to date cooling degree days 84 96  
Year to date cooling degree days 497 442  
Since 1 June cooling degree days 441 412  
Growing Degree Days 15 (Base 50)    
Moisture  
Dew Point 54 °F    
Average Humidity 70    
Maximum Humidity 90    
Minimum Humidity 49    
Precipitation  
Precipitation 0.42 in 0.12 in 2.51 in (1928)
Month to date precipitation 1.85 1.84  
Year to date precipitation 27.15 22.86  
Snow  
Snow 0.00 in 0.00 in 0.00 in (2002)
Month to date snowfall 0.0 0.0  
Since 1 June snowfall 0.0 0.0  
Since 1 July snowfall 0.0 0.0  
Snow Depth 0.00 in    
Sea Level Pressure  
Sea Level Pressure 29.89 in    
Wind  
Wind Speed 8 mph (SSW)    
Max Wind Speed 17 mph    
Max Gust Speed 22 mph    
Visibility 10 miles    
Events Rain    
T = Trace of Precipitation, MM = Missing Value Source: NWS Daily Summary

Daily Weather History Graph

Daily Weather History Graph

Search for Another Location

Airport or City:

Trip Planner

Search our weather history database for the weather conditions in past years. The results will help you decide how hot, cold, wet, or windy it might be!

Date:

Astronomy

Aug. 16, 2014 Rise Set
Actual Time 6:11 AM EDT 8:05 PM EDT
Civil Twilight 5:40 AM EDT 8:35 PM EDT
Nautical Twilight 5:03 AM EDT 9:13 PM EDT
Astronomical Twilight 4:22 AM EDT 9:53 PM EDT
Moon 11:35 PM EDT (8/16) 1:06 PM EDT (8/16)
Length of Visible Light 14h 55m
Length of Day
13h 54m
Waning Gibbous, 59% of the Moon is Illuminated
Aug 16
Waning Gibbous
Aug 17
Last Quarter
Aug 25
New
Sep 2
First Quarter
Sep 8
Full

Hourly Weather History & Observations

Time (EDT) Temp. Dew Point Humidity Pressure Visibility Wind Dir Wind Speed Gust Speed Precip Events Conditions
12:54 AM 62.1 °F 52.0 °F 70% 29.91 in 10.0 mi SW 9.2 mph - N/A   Partly Cloudy
1:54 AM 59.0 °F 51.1 °F 75% 29.91 in 10.0 mi SW 6.9 mph - N/A   Scattered Clouds
2:54 AM 60.1 °F 51.1 °F 72% 29.91 in 10.0 mi SW 9.2 mph - N/A   Scattered Clouds
3:54 AM 57.9 °F 50.0 °F 75% 29.92 in 10.0 mi SW 5.8 mph - N/A   Scattered Clouds
4:54 AM 57.0 °F 50.0 °F 77% 29.91 in 10.0 mi SSW 6.9 mph - N/A   Scattered Clouds
5:54 AM 55.9 °F 50.0 °F 80% 29.91 in 10.0 mi South 3.5 mph - N/A   Scattered Clouds
6:54 AM 55.0 °F 50.0 °F 83% 29.92 in 10.0 mi SE 4.6 mph - N/A   Mostly Cloudy
7:54 AM 60.1 °F 52.0 °F 75% 29.93 in 10.0 mi South 5.8 mph - N/A   Mostly Cloudy
8:54 AM 63.0 °F 52.0 °F 67% 29.93 in 10.0 mi South 5.8 mph - N/A   Mostly Cloudy
9:54 AM 66.9 °F 53.1 °F 61% 29.92 in 10.0 mi SSW 9.2 mph - N/A   Mostly Cloudy
10:54 AM 69.1 °F 55.0 °F 61% 29.91 in 10.0 mi SW 8.1 mph - N/A   Mostly Cloudy
11:54 AM 72.0 °F 55.9 °F 57% 29.91 in 10.0 mi SSW 9.2 mph - N/A   Mostly Cloudy
12:54 PM 73.9 °F 55.0 °F 52% 29.91 in 10.0 mi SW 11.5 mph - N/A   Mostly Cloudy
1:54 PM 73.9 °F 54.0 °F 50% 29.89 in 10.0 mi SW 9.2 mph - N/A   Mostly Cloudy
2:54 PM 73.0 °F 54.0 °F 51% 29.88 in 10.0 mi SW 9.2 mph - N/A   Overcast
3:54 PM 73.0 °F 53.1 °F 49% 29.87 in 10.0 mi SW 10.4 mph - N/A   Overcast
4:54 PM 71.1 °F 53.1 °F 53% 29.87 in 10.0 mi SW 13.8 mph - N/A   Overcast
5:54 PM 68.0 °F 55.9 °F 65% 29.87 in 10.0 mi SW 4.6 mph - 0.01 in Rain Light Rain
6:54 PM 68.0 °F 57.0 °F 68% 29.85 in 10.0 mi SE 3.5 mph - 0.01 in Rain Light Rain
7:54 PM 64.0 °F 61.0 °F 90% 29.90 in 3.0 mi NNW 9.2 mph - 0.08 in Rain Heavy Rain
8:54 PM 64.9 °F 60.1 °F 84% 29.87 in 8.0 mi SSE 5.8 mph - 0.18 in Rain Rain
9:54 PM 63.0 °F 59.0 °F 87% 29.86 in 10.0 mi SSW 10.4 mph - 0.02 in Rain Light Rain
10:54 PM 62.1 °F 57.9 °F 86% 29.84 in 10.0 mi SW 5.8 mph - 0.02 in Rain Light Rain
11:54 PM 62.1 °F 57.9 °F 86% 29.84 in 10.0 mi SSW 10.4 mph - 0.09 in Rain Light Rain